Temp
11 11 11 11 11 11 11 11 10 10 10 9 8 8 8 7 7 6 5 4 4 3 3 3 2 2 2 1 1 1 1 0 0 0 0 0 -0 -0 -0 -0 -0 -0 -0
10 11 11 11 11 11 10 9 9 9 8 8 8 7 6 6 5 5 4 3 3 2 2 2 2 1 1 1 0 0 -0 -0 -0 -0 -0 -0 -0 -0 -0 -0 -0 -0 -0
10 10 10 10 9 9 9 8 8 8 7 7 6 5 5 4 4 3 2 2 2 2 1 1 0 0 -0 -0 -0 -1 -1 -1 -1 -1 -1 -1 -1 -1 -1 -1 -1 -1 -1
10 10 9 9 9 8 8 7 7 6 6 5 4 4 3 3 2 2 2 1 1 1 0 -0 -0 -1 -1 -1 -1 -1 -2 -2 -1 -1 -1 -1 -1 -1 -2 -1 -1 -1 0
9 9 8 8 7 7 6 6 6 5 5 4 3 3 2 2 2 2 1 1 0 0 -0 -1 -1 -2 -2 -2 -2 -2 -2 -2 -2 -2 -2 -2 -2 -2 -2 -2 -2 -2 0
8 7 7 6 6 6 5 5 4 4 3 3 2 2 2 1 1 1 1 0 -0 -1 -1 -1 -2 -2 -2 -3 -3 -3 -2 -2 -2 -2 -2 -2 -2 -2 -2 -2 -2 -2 -2
7 6 6 6 5 5 4 3 3 2 2 2 1 1 1 1 0 0 -1 -1 -1 -1 -1 -1 -2 -3 -3 -3 -3 -3 -3 -3 -3 -2 -2 -2 -2 -1 -2 -2 -2 -2 -2
6 5 5 4 4 3 3 2 2 2 1 1 1 0 -0 -0 -1 -1 -2 -2 -2 -2 -2 -2 -3 -3 -3 -3 -3 -2 -2 -2 -2 -2 -1 -1 -2 -1 -2 -2 -2 -2 -2
5 4 4 3 3 2 2 2 1 1 0 0 -0 -1 -1 -1 -1 -2 -2 -2 -2 -3 -3 -3 -3 -3 -3 -3 -3 -2 -2 -2 -2 -2 -2 -2 -2 -2 -2 -2 -2 -3 -2
4 3 3 3 2 2 1 1 0 -0 -1 -1 -1 -2 -2 -2 -2 -2 -2 -3 -3 -4 -3 -3 -3 -3 -3 -3 -3 -3 -3 -3 -2 -2 -2 -2 -2 -3 -2 -3 -3 -3 -3
3 3 2 1 1 1 0 0 -0 -1 -1 -2 -2 -2 -2 -2 -2 -3 -3 -4 -4 -4 -4 -4 -4 -4 -4 -3 -3 -2 -3 -3 -3 -3 -3 -3 -3 -3 -3 -3 -3 -4 -3
2 2 1 1 0 -0 -0 -1 -1 -2 -2 -2 -3 -3 -3 -3 -3 -4 -5 -4 -4 -5 -4 -4 -4 -4 -4 -3 -3 -3 -4 -3 -3 -4 -4 -4 -4 -4 -4 -5 -4 -5 -5
1 1 0 0 -0 -1 -1 -1 -2 -2 -3 -3 -3 -3 -3 -4 -5 -5 -5 -5 -5 -5 -4 -4 -4 -4 -4 -4 -4 -4 -4 -4 -4 -5 -5 -5 -5 -5 -5 -5 -5 -5 -5
0 -0 -0 -1 -1 -1 -2 -3 -3 -3 -4 -4 -5 -5 -5 -6 -6 -5 -5 -5 -5 -5 -4 -4 -4 -4 -5 -4 -5 -5 -5 -5 -5 -5 -5 -5 -5 -5 -5 -5 -5 -5 -6
-0 -1 -1 -2 -2 -2 -3 -3 -4 -4 -5 -5 -6 -6 -6 -6 -6 -6 -5 -5 -5 -5 -5 -5 -5 -5 -5 -5 -5 -6 -6 -6 -6 -6 -6 -6 -6 -6 -6 -5 -5 -5 -6
-1 -2 -2 -3 -3 -3 -3 -3 -4 -5 -5 -5 -6 -6 -6 -6 -6 -6 -6 -6 -6 -5 -5 -5 -5 -6 -6 -6 -6 -6 -6 -6 -6 -6 -6 -6 -6 -6 -6 -6 -5 -5 -6
-1 -2 -3 -3 -3 -3 -4 -4 -4 -4 -5 -5 -7 -8 -7 -7 -7 -7 -6 -6 -6 -6 -6 -6 -6 -6 -6 -7 -7 -6 -6 -6 -6 -6 -6 -6 -6 -6 -6 -6 -5 -6 -6
-2 -2 -3 -3 -4 -4 -5 -5 -6 -6 -6 -5 -6 -8 -8 -7 -7 -7 -6 -7 -6 -6 -6 -6 -7 -7 -7 -7 -7 -7 -7 -7 -7 -6 -6 -6 -6 -6 -6 -6 -6 -6 -6
-2 -2 -3 -4 -4 -4 -5 -5 -6 -6 -6 -7 -7 -7 -7 -7 -7 -7 -7 -7 -7 -6 -7 -8 -7 -7 -7 -7 -7 -7 -7 -7 -7 -7 -6 -7 -7 -7 -7 -6 -6 -6 -6
-2 -2 -3 -3 -4 -4 -5 -5 -5 -6 -7 -8 -7 -7 -7 -7 -7 -7 -6 -6 -6 -7 -7 -7 -7 -7 -7 -7 -7 -7 -7 -7 -7 -7 -7 -7 -7 -7 -6 -6 -6 -6 -6
-2 -2 -3 -4 -4 -5 -5 -5 -6 -7 -7 -7 -7 -7 -8 -7 -7 -7 -7 -7 -7 -7 -7 -7 -7 -6 -6 -7 -7 -7 -7 -7 -7 -7 -7 -7 -7 -7 -6 -6 -6 -6 -6
-2 -2 -3 -3 -4 -4 -5 -6 -6 -7 -7 -7 -7 -6 -7 -7 -7 -7 -7 -7 -7 -7 -6 -6 -5 -5 -5 -6 -6 -7 -7 -7 -7 -7 -7 -7 -7 -7 -6 -6 -7 -6 -6
-2 -3 -3 -4 -4 -4 -5 -5 -6 -6 -6 -7 -7 -7 -7 -7 -7 -7 -7 -7 -6 -5 -5 -5 -5 -5 -5 -5 -6 -6 -7 -7 -7 -7 -7 -7 -7 -7 -7 -7 -6 -6 -5
-2 -3 -3 -3 -4 -4 -4 -5 -6 -6 -7 -7 -7 -7 -7 -7 -7 -7 -6 -6 -5 -4 -4 -4 -4 -4 -4 -5 -6 -6 -6 -6 -6 -6 -7 -7 -7 -7 -7 -6 -6 -5 -5
-2 -3 -3 -3 -4 -4 -4 -5 -7 -6 -6 -6 -7 -7 -7 -7 -6 -6 -6 -5 -4 -4 -4 -4 -4 -4 -5 -5 -5 -5 -6 -6 -6 -6 -6 -6 -6 -6 -6 -5 -4 -3 -2
-2 -3 -3 -4 -4 -4 -4 -5 -5 -6 -6 -7 -7 -7 -7 -6 -5 -5 -4 -4 -5 -4 -5 -5 -5 -5 -5 -4 -4 -4 -4 -4 -5 -5 -4 -3 -2 -2 -2 -3 -3 -2 -2
Height
1495 1499 1502 1506 1509 1511 1515 1518 1521 1523 1525 1528 1528 1529 1529 1529 1528 1527 1527 1526 1526 1526 1525 1524 1523 1522 1521 1520 1519 1517 1516 1514 1509 1506 1507 1507 1505 1505 1504 1503 1501 1500 1500
1498 1501 1504 1508 1511 1513 1516 1519 1521 1523 1524 1525 1526 1526 1525 1524 1523 1523 1523 1523 1523 1521 1520 1518 1517 1516 1515 1514 1513 1511 1509 1508 1505 1499 1499 1499 1498 1497 1496 1494 1493 1492 1491
1501 1504 1507 1510 1512 1514 1516 1518 1520 1521 1521 1522 1521 1521 1521 1520 1520 1520 1520 1519 1518 1516 1514 1513 1512 1510 1509 1507 1506 1504 1502 1500 1498 1494 1491 1491 1490 1489 1487 1486 1484 1483 1483
1505 1507 1509 1512 1513 1515 1516 1517 1518 1518 1518 1518 1518 1517 1517 1517 1517 1516 1515 1513 1512 1510 1509 1508 1507 1504 1502 1500 1498 1495 1493 1492 1491 1488 1485 1483 1482 1481 1479 1477 1474 1473 1472
1508 1509 1511 1513 1514 1515 1515 1515 1516 1516 1515 1515 1514 1514 1514 1513 1512 1511 1509 1508 1506 1505 1504 1503 1500 1498 1496 1494 1492 1488 1487 1485 1483 1481 1478 1476 1475 1474 1473 1472 1470 1467 1465
1510 1511 1512 1513 1514 1514 1514 1514 1513 1512 1512 1511 1511 1510 1509 1508 1507 1506 1505 1503 1501 1499 1497 1496 1494 1491 1488 1485 1484 1482 1481 1479 1476 1473 1471 1470 1470 1468 1467 1466 1465 1463 1460
1510 1511 1511 1511 1512 1512 1511 1511 1510 1509 1508 1508 1507 1506 1505 1503 1502 1500 1499 1496 1494 1492 1490 1488 1485 1483 1481 1479 1476 1474 1472 1471 1470 1468 1466 1464 1463 1462 1461 1459 1457 1456 1454
1509 1509 1510 1510 1510 1510 1509 1508 1507 1506 1505 1504 1502 1500 1498 1497 1495 1493 1492 1490 1487 1485 1483 1481 1479 1476 1474 1471 1468 1466 1464 1463 1462 1460 1458 1457 1456 1455 1454 1452 1450 1449 1447
1509 1509 1509 1509 1509 1508 1507 1506 1505 1503 1501 1499 1497 1495 1492 1490 1489 1487 1487 1484 1480 1477 1475 1474 1471 1468 1466 1464 1463 1460 1457 1455 1454 1452 1451 1450 1450 1448 1448 1446 1444 1444 1441
1509 1509 1509 1508 1506 1505 1504 1503 1501 1499 1497 1495 1493 1491 1488 1485 1483 1481 1479 1477 1473 1470 1467 1465 1465 1462 1460 1458 1456 1454 1451 1448 1446 1444 1442 1441 1440 1440 1440 1439 1438 1437 1435
1508 1507 1506 1505 1504 1502 1501 1500 1498 1495 1493 1490 1488 1487 1484 1480 1477 1474 1471 1470 1467 1463 1460 1458 1457 1455 1453 1452 1450 1446 1442 1442 1439 1437 1436 1434 1434 1433 1431 1430 1429 1428 1427
1506 1505 1504 1502 1501 1500 1498 1496 1493 1491 1488 1485 1483 1481 1478 1474 1471 1467 1465 1464 1461 1458 1454 1452 1450 1448 1446 1445 1442 1439 1437 1435 1431 1429 1427 1426 1425 1424 1423 1422 1422 1421 1419
1503 1502 1502 1500 1499 1497 1495 1492 1489 1486 1484 1481 1478 1474 1470 1468 1465 1462 1459 1457 1455 1452 1450 1447 1444 1441 1438 1435 1433 1431 1430 1426 1424 1422 1420 1418 1418 1417 1416 1415 1414 1413 1412
1501 1500 1499 1498 1496 1493 1491 1489 1486 1483 1479 1476 1473 1469 1464 1461 1459 1456 1453 1451 1448 1445 1443 1439 1436 1433 1431 1428 1424 1422 1419 1417 1416 1415 1413 1412 1411 1410 1409 1409 1407 1407 1406
1500 1498 1496 1495 1493 1490 1488 1485 1482 1480 1476 1472 1468 1464 1461 1457 1454 1452 1450 1446 1442 1439 1437 1432 1429 1426 1422 1419 1416 1414 1413 1412 1410 1409 1407 1406 1404 1403 1402 1402 1401 1401 1400
1497 1495 1494 1492 1490 1487 1483 1481 1479 1476 1472 1468 1464 1461 1457 1453 1450 1447 1444 1440 1437 1434 1430 1425 1422 1419 1416 1413 1410 1408 1407 1406 1404 1402 1401 1399 1397 1396 1395 1395 1396 1395 1394
1495 1494 1492 1490 1487 1483 1480 1476 1473 1470 1466 1462 1457 1454 1451 1448 1445 1441 1438 1435 1431 1427 1423 1419 1415 1412 1409 1407 1405 1403 1401 1399 1398 1396 1394 1393 1391 1389 1389 1389 1389 1389 1388
1494 1492 1490 1488 1485 1481 1478 1474 1470 1465 1459 1455 1453 1449 1446 1443 1440 1437 1433 1429 1424 1421 1417 1413 1409 1406 1403 1400 1398 1396 1394 1392 1391 1389 1387 1386 1385 1384 1384 1383 1384 1384 1383
1492 1490 1488 1486 1483 1479 1476 1473 1468 1462 1457 1452 1449 1446 1442 1439 1435 1432 1428 1423 1418 1414 1410 1406 1403 1399 1396 1393 1391 1389 1387 1386 1384 1382 1381 1380 1379 1378 1378 1378 1378 1378 1378
1491 1489 1487 1484 1481 1477 1473 1469 1464 1460 1455 1451 1447 1442 1437 1434 1431 1426 1423 1418 1413 1409 1404 1400 1396 1392 1389 1386 1383 1381 1379 1378 1377 1376 1374 1373 1373 1372 1372 1372 1372 1372 1371
1490 1488 1485 1483 1479 1475 1471 1467 1462 1458 1454 1450 1445 1441 1438 1434 1428 1422 1417 1413 1408 1403 1398 1393 1389 1385 1381 1378 1375 1373 1372 1370 1369 1369 1367 1367 1367 1366 1367 1367 1366 1366 1365
1488 1486 1485 1482 1478 1474 1471 1467 1462 1457 1453 1448 1443 1439 1434 1430 1424 1419 1413 1408 1403 1397 1392 1387 1382 1377 1373 1370 1367 1365 1363 1362 1362 1362 1361 1361 1361 1361 1361 1361 1360 1359 1359
1487 1486 1484 1481 1477 1473 1469 1465 1461 1456 1451 1446 1441 1436 1431 1426 1420 1415 1409 1403 1397 1392 1387 1381 1376 1371 1366 1361 1358 1356 1355 1355 1355 1355 1356 1355 1355 1356 1356 1355 1355 1353 1353
1487 1485 1483 1479 1476 1472 1468 1464 1460 1455 1450 1445 1440 1434 1429 1423 1417 1411 1405 1399 1393 1388 1383 1377 1372 1366 1360 1355 1352 1349 1349 1349 1349 1350 1350 1350 1351 1351 1351 1350 1349 1348 1346
1486 1484 1482 1478 1475 1471 1468 1463 1459 1455 1450 1444 1438 1432 1426 1420 1414 1408 1402 1397 1392 1386 1381 1375 1370 1364 1358 1353 1349 1347 1346 1346 1346 1346 1346 1347 1347 1346 1345 1345 1344 1342 1341
1485 1483 1481 1478 1475 1471 1467 1462 1457 1453 1448 1443 1437 1430 1424 1418 1413 1407 1401 1396 1391 1386 1381 1375 1369 1364 1359 1354 1351 1349 1347 1346 1345 1345 1345 1345 1344 1343 1342 1341 1339 1337 1333
Wind_Speed
16 15 16 18 16 15 17 16 18 19 18 17 15 14 14 15 16 16 16 16 16 16 17 19 19 21 22 23 24 25 26 26 31 35 32 29 30 29 28 27 27 25 25
16 15 16 16 15 14 14 14 14 14 13 12 12 13 14 14 14 15 14 15 16 18 19 20 21 22 23 24 25 26 26 27 30 33 31 31 32 32 31 31 29 27 26
15 15 14 12 10 9 8 8 8 8 9 11 11 12 13 14 14 14 15 17 18 18 20 20 21 23 26 27 29 31 32 31 30 32 32 31 31 32 35 36 36 34 37
13 11 10 8 7 6 5 6 7 8 9 10 11 12 13 13 13 15 18 17 20 22 21 22 25 28 27 25 26 26 22 25 26 30 33 36 35 33 31 28 27 26 26
9 7 7 6 5 5 7 8 9 9 10 11 12 13 15 16 17 17 18 20 23 23 24 22 22 24 24 24 26 26 26 27 28 28 30 26 27 26 20 20 22 21 21
6 6 5 4 5 6 6 7 9 10 11 12 13 13 14 15 17 18 20 22 21 22 23 23 25 29 32 25 21 21 23 25 28 27 22 27 28 23 22 24 25 25 30
3 1 2 3 5 6 8 9 10 11 12 13 14 15 16 19 21 22 19 19 21 22 24 28 28 28 27 27 24 23 21 20 22 25 28 29 25 25 25 25 26 27 30
2 3 4 6 8 10 11 13 14 14 14 15 17 18 19 20 20 20 16 18 21 23 25 25 27 31 28 25 23 21 21 22 24 24 23 23 24 24 23 23 24 26 29
3 4 6 7 10 12 14 15 13 15 17 16 17 17 18 19 19 18 16 20 23 25 26 27 22 26 24 21 20 25 26 27 26 23 23 24 24 23 23 21 21 23 23
3 6 9 13 14 14 14 15 16 19 19 20 19 20 21 20 21 24 23 21 24 27 29 25 24 23 22 20 21 24 28 29 22 17 20 19 22 19 18 24 27 28 29
6 11 11 10 10 12 13 17 18 19 20 19 20 21 22 23 26 26 25 19 23 26 25 24 23 23 22 23 22 26 22 22 24 28 29 28 29 29 27 25 23 27 27
10 10 8 9 10 12 16 18 20 19 19 19 21 23 22 23 25 19 15 16 17 21 23 24 25 23 21 24 25 24 24 25 27 28 29 29 29 23 17 16 18 18 20
9 9 9 11 13 15 18 21 18 16 18 21 23 25 24 25 20 18 16 16 16 19 20 22 23 23 23 25 25 23 22 25 26 25 22 21 21 19 18 18 17 18 19
10 11 12 14 17 19 18 15 16 18 19 21 24 28 27 23 24 22 18 19 21 22 22 21 24 18 27 29 30 29 25 23 20 19 20 20 20 20 18 16 16 17 18
10 11 14 15 14 13 13 15 16 18 17 21 23 21 22 24 24 21 21 22 23 23 23 28 29 29 28 24 21 19 16 17 18 18 18 19 19 17 18 16 16 16 18
10 10 10 10 13 15 15 15 15 18 20 19 14 16 21 22 21 21 21 20 20 21 24 25 28 28 24 23 21 20 19 19 18 18 18 18 20 20 19 15 15 17 18
7 9 10 13 14 15 15 17 22 21 21 21 16 17 16 18 18 18 19 21 21 23 24 24 24 25 23 22 21 21 22 21 20 20 19 19 19 18 15 15 16 17 18
7 9 12 13 15 15 16 18 21 27 29 25 16 16 16 15 17 19 20 21 22 18 19 20 21 22 23 25 22 21 21 21 20 20 20 19 17 16 16 16 16 18 19
9 10 11 13 14 15 17 20 24 26 21 20 20 18 16 16 20 21 20 20 22 22 22 23 24 23 24 25 24 22 21 21 20 21 19 21 21 18 18 18 19 19 19
9 10 11 13 14 16 19 23 21 20 21 20 21 23 22 25 26 24 21 21 22 24 25 25 25 25 25 25 24 23 22 21 21 19 20 20 18 15 17 18 18 19 21
8 9 11 12 14 18 18 18 20 21 22 21 21 21 21 22 23 24 25 25 25 25 26 26 26 26 25 25 24 23 22 21 20 20 19 19 17 16 16 18 19 20 20
8 9 11 13 16 15 17 19 20 20 20 21 21 22 22 23 26 27 27 27 26 25 24 25 26 26 27 27 24 23 22 21 20 18 18 18 16 15 16 18 19 20 21
8 9 10 14 14 15 16 17 19 20 22 23 24 26 26 27 27 28 28 27 25 24 25 25 28 27 26 22 20 18 18 17 17 16 16 17 15 15 16 18 19 19 20
8 9 11 13 16 18 19 21 22 23 24 24 26 28 29 29 29 29 27 25 26 25 25 25 24 24 23 20 17 14 13 13 13 13 15 14 14 15 16 17 18 18 18
8 9 11 14 16 19 20 22 23 24 25 26 29 30 31 30 30 29 27 26 25 25 24 23 24 24 22 17 13 9 7 7 8 10 10 10 12 12 11 14 15 16 19
8 10 12 14 16 19 20 21 23 24 27 29 31 31 31 30 29 28 26 25 25 23 25 24 22 21 18 16 14 12 9 6 4 3 2 3 5 9 12 15 19 24 28
Wind_Direction
153 160 167 172 181 187 191 202 205 202 208 220 231 249 256 262 267 274 280 282 283 284 286 286 286 287 288 287 286 285 284 285 287 292 294 297 296 297 298 295 291 287 286
160 163 162 164 172 179 182 181 193 206 216 232 240 250 259 269 279 283 281 284 288 289 287 287 288 289 288 289 289 288 287 285 285 290 294 294 293 294 293 295 296 291 292
167 171 168 170 179 189 187 195 214 230 240 252 264 275 281 286 287 287 292 296 296 297 299 297 296 294 292 290 289 287 287 288 286 287 290 289 288 289 294 293 289 286 285
161 167 172 176 186 197 210 228 246 258 268 279 283 283 286 286 284 286 292 295 301 303 298 295 295 293 294 296 296 294 291 287 286 287 287 289 291 292 291 295 293 288 283
163 169 173 178 194 220 236 251 264 274 278 277 276 276 276 278 283 287 292 295 295 291 291 298 296 297 299 296 294 289 287 286 284 290 292 292 289 288 293 297 300 296 291
160 160 167 201 222 244 266 281 283 281 281 283 285 285 283 281 281 282 284 288 286 285 287 290 288 292 296 300 295 286 280 283 287 288 288 289 292 291 287 293 288 290 288
147 164 249 269 293 307 309 307 304 300 298 297 294 289 283 284 286 288 289 286 282 281 284 285 293 298 302 298 291 289 283 277 275 279 281 282 280 285 292 286 282 284 287
254 277 299 312 317 316 311 307 303 301 300 299 296 293 292 292 291 291 294 284 281 283 287 289 291 298 297 296 292 293 291 288 286 287 285 282 280 279 281 283 280 291 286
271 290 294 299 299 297 299 302 305 306 306 304 306 303 297 297 299 297 295 288 290 291 295 300 296 294 291 292 288 291 295 294 294 287 279 278 279 276 276 285 283 287 284
264 277 287 292 293 296 303 310 312 311 311 309 306 303 301 301 299 296 294 293 291 293 298 296 294 287 291 291 290 290 287 287 288 299 297 291 271 275 271 279 280 276 275
292 298 294 298 305 308 308 310 312 308 305 304 303 301 301 302 299 296 292 290 289 296 294 295 299 297 291 291 287 288 295 307 298 291 290 289 285 288 286 281 271 267 261
295 293 294 287 284 290 298 305 309 306 302 304 303 302 303 306 310 306 305 297 298 292 293 298 298 298 296 292 289 284 292 296 282 279 281 284 286 283 274 273 272 267 274
293 288 280 277 286 294 300 306 305 304 307 308 307 305 309 315 314 313 305 302 300 297 295 297 297 294 291 282 286 298 291 278 281 281 281 281 277 287 274 276 279 270 277
288 284 284 286 292 298 303 305 306 309 313 311 312 315 316 315 317 321 320 313 308 303 302 300 306 293 300 296 293 292 285 277 276 280 283 286 285 286 275 278 278 278 282
287 291 294 299 303 307 307 308 312 313 313 311 316 314 314 311 315 316 309 308 308 305 303 293 293 300 303 305 302 299 297 292 284 281 281 285 285 283 280 276 271 276 277
302 306 314 315 316 317 314 311 310 311 314 314 313 311 307 302 305 306 308 307 304 303 298 294 296 299 300 307 305 300 296 294 291 290 286 288 289 285 283 270 266 269 275
314 316 320 323 328 329 327 324 323 322 321 322 320 318 315 312 312 312 313 312 304 302 295 296 296 298 298 302 303 295 292 292 293 288 288 290 293 283 274 269 267 268 274
334 324 325 331 334 333 334 331 327 326 324 331 345 345 331 322 320 320 317 311 309 307 303 303 303 305 298 297 298 296 294 294 290 289 287 288 289 281 278 273 269 268 272
337 333 335 334 335 336 332 329 326 328 336 342 345 345 346 340 336 329 325 319 318 318 320 315 312 308 301 299 298 296 292 289 287 294 285 284 285 274 272 271 268 268 273
341 338 337 338 341 342 340 338 343 349 349 349 349 348 346 344 333 332 332 330 328 326 322 318 314 308 304 300 296 292 290 287 283 287 282 284 284 272 272 273 273 274 275
345 344 344 347 349 349 350 355 353 351 350 347 346 349 338 330 333 338 340 337 332 327 323 319 316 313 310 305 298 290 287 286 286 281 284 284 282 271 270 271 275 276 276
347 350 353 355 356 359 358 355 354 354 351 348 351 353 352 347 346 344 341 338 334 331 330 329 327 325 322 316 306 297 287 283 284 279 281 280 278 270 268 271 277 279 280
352 356 355 358 4 358 351 358 3 356 359 2 357 354 355 352 350 347 343 340 340 343 343 337 333 328 326 320 307 292 281 277 278 275 273 273 273 267 268 271 277 279 279
359 359 359 4 3 0 359 360 0 2 2 1 0 0 357 356 354 351 351 352 353 350 346 341 338 335 331 327 315 296 281 272 268 266 266 265 270 266 267 269 272 277 286
360 358 359 0 0 359 356 2 2 9 5 4 4 2 1 0 360 0 359 360 355 354 358 357 353 352 348 348 348 338 311 283 266 267 266 261 264 268 268 274 285 296 297
359 357 357 356 356 356 357 1 5 6 4 5 5 5 4 4 6 4 4 2 358 359 355 359 9 5 11 20 24 28 31 35 36 40 34 343 316 304 303 301 301 296 295